sat.trackr.live / text

‹ back to catalog

HAWK-14A

NORAD 68448 · 2026-067AJ

PAYLOAD ACTIVE UNKNOWN

§ Identity

Operator
Country
US
Launch date
2026-03-30
Launch site
AFWTR
Launch vehicle
Mass (kg)
RCS (m²)

External: N2YO · Heavens-Above · Gunter

§ Orbital elements

Epoch: 2026-09-20T02:27:46.755072Z

Period
94.81 min
Inclination
97.4716°
Eccentricity
0.0005190
Mean motion
15.18877202 rev/d
Perigee alt
505.7 km
Apogee alt
512.8 km
Semi-major
6,887.4 km
B*
1.5139e-4
RAAN
220.4609°
Arg perigee
101.6118°
Mean anomaly
258.5699°
Rev number
2,634

§ Raw data

HAWK-14A1 68448U 26067AJ  26263.10262448  .00003089  00000+0  15139-3 0  99982 68448  97.4716 220.4609 0005190 101.6118 258.5699 15.18877202 26342

JSON: /api/v1/satellites/68448 · /tle

For live sub-satellite position, see the globe view (requires WebGL).

§ Visibility from observer

Set your observer location to see the next 7 days of passes ≥ 10°. The values pass through the URL so the page stays shareable.

No JS? Fill the form by hand. The geolocation button needs JavaScript.